• In Netherlands
  • List of Countries
  • For 7 days
  • Water Temperature
  • Satellite Maps
  • Weather Map
  • Weather Widgets
  • user-avatar
    Login

    Hourly Weather Kandahar

    Today, 21 February, Wednesday

    Time Temperature Precipitation Wind Pressure Humidity
    00:00 +16°C° 0 mm 2 mps 673 mmHg 28%
    01:00 +15°C° 0 mm 1 mps 673 mmHg 30%
    02:00 +15°C° 0 mm 1 mps 673 mmHg 30%
    03:00 +15°C° 0 mm 1 mps 673 mmHg 31%
    04:00 +14°C° 0 mm 1 mps 673 mmHg 31%
    05:00 +14°C° 0 mm 1 mps 673 mmHg 31%
    06:00 +14°C° 0 mm 1 mps 674 mmHg 31%
    07:00 +14°C° 0 mm 1 mps 674 mmHg 31%
    08:00 +16°C° 0 mm 2 mps 675 mmHg 27%
    09:00 +18°C° 0 mm 2 mps 675 mmHg 24%
    10:00 +20°C° 0 mm 2 mps 676 mmHg 20%
    11:00 +20°C° 0 mm 3 mps 676 mmHg 18%
    12:00 +21°C° 0 mm 3 mps 676 mmHg 16%
    13:00 +22°C° 0 mm 4 mps 675 mmHg 14%
    14:00 +22°C° 0 mm 4 mps 675 mmHg 14%
    15:00 +22°C° 0 mm 4 mps 675 mmHg 14%
    16:00 +22°C° 0 mm 4 mps 675 mmHg 14%
    17:00 +21°C° 0 mm 4 mps 674 mmHg 16%
    18:00 +20°C° 0 mm 3 mps 674 mmHg 18%
    19:00 +19°C° 0 mm 2 mps 674 mmHg 20%
    20:00 +19°C° 0 mm 1 mps 674 mmHg 21%
    21:00 +18°C° 0 mm 1 mps 674 mmHg 22%
    22:00 +18°C° 0 mm 1 mps 674 mmHg 24%
    23:00 +16°C° 0 mm 1 mps 674 mmHg 24%

    Tomorrow, 22 February, Thursday

    Time Temperature Precipitation Wind Pressure Humidity
    00:00 +16°C° 0 mm 1 mps 674 mmHg 24%
    01:00 +15°C° 0 mm 1 mps 673 mmHg 25%
    02:00 +15°C° 0 mm 1 mps 673 mmHg 25%
    03:00 +15°C° 0 mm 1 mps 673 mmHg 25%
    04:00 +14°C° 0 mm 1 mps 672 mmHg 26%
    05:00 +14°C° 0 mm 1 mps 673 mmHg 26%
    06:00 +14°C° 0 mm 1 mps 673 mmHg 26%
    07:00 +14°C° 0 mm 1 mps 673 mmHg 26%
    08:00 +16°C° 0 mm 1 mps 674 mmHg 23%
    09:00 +19°C° 0 mm 1 mps 674 mmHg 20%
    10:00 +19°C° 0 mm 0 mps 675 mmHg 16%
    11:00 +22°C° 0 mm 1 mps 674 mmHg 16%
    12:00 +23°C° 0 mm 2 mps 674 mmHg 16%
    13:00 +24°C° 0 mm 2 mps 674 mmHg 15%
    14:00 +24°C° 0 mm 2 mps 673 mmHg 15%
    15:00 +24°C° 0 mm 2 mps 673 mmHg 15%
    16:00 +24°C° 0 mm 3 mps 673 mmHg 15%
    17:00 +23°C° 0 mm 2 mps 673 mmHg 17%
    18:00 +21°C° 0 mm 2 mps 673 mmHg 19%
    19:00 +20°C° 0 mm 2 mps 673 mmHg 21%
    20:00 +20°C° 0 mm 1 mps 673 mmHg 23%
    21:00 +19°C° 0 mm 1 mps 673 mmHg 24%
    22:00 +19°C° 0 mm 1 mps 673 mmHg 25%
    23:00 +18°C° 0 mm 1 mps 673 mmHg 25%

    Day after tomorrow, 23 February, Friday

    Time Temperature Precipitation Wind Pressure Humidity
    00:00 +18°C° 0 mm 1 mps 673 mmHg 25%
    01:00 +18°C° 0 mm 1 mps 673 mmHg 25%
    02:00 +17°C° 0 mm 2 mps 672 mmHg 25%
    03:00 +16°C° 0 mm 2 mps 672 mmHg 26%
    04:00 +16°C° 0 mm 2 mps 672 mmHg 26%
    05:00 +16°C° 0 mm 2 mps 672 mmHg 26%
    06:00 +16°C° 0 mm 3 mps 672 mmHg 26%
    07:00 +16°C° 0 mm 3 mps 672 mmHg 26%
    08:00 +18°C° 0 mm 3 mps 673 mmHg 23%
    09:00 +20°C° 0 mm 4 mps 673 mmHg 21%
    10:00 +22°C° 0 mm 4 mps 673 mmHg 18%
    11:00 +22°C° 0 mm 5 mps 673 mmHg 19%
    12:00 +23°C° 0 mm 5 mps 672 mmHg 19%
    13:00 +23°C° 0 mm 5 mps 672 mmHg 20%
    14:00 +22°C° 0.1 mm 4 mps 672 mmHg 24%
    15:00 +22°C° 0.1 mm 4 mps 671 mmHg 28%
    16:00 +21°C° 0.1 mm 3 mps 671 mmHg 32%
    17:00 +19°C° 1 mm 3 mps 671 mmHg 42%
    18:00 +18°C° 1 mm 3 mps 671 mmHg 52%
    19:00 +16°C° 1 mm 3 mps 671 mmHg 62%
    20:00 +16°C° 0.5 mm 3 mps 671 mmHg 63%
    21:00 +15°C° 0.5 mm 4 mps 671 mmHg 63%
    22:00 +15°C° 0.5 mm 5 mps 671 mmHg 64%
    23:00 +15°C° 0.3 mm 5 mps 671 mmHg 64%

    24 February, Saturday

    Time Temperature Precipitation Wind Pressure Humidity
    00:00 +14°C° 0.3 mm 4 mps 671 mmHg 64%
    01:00 +14°C° 0.3 mm 4 mps 671 mmHg 65%
    02:00 +14°C° 0.2 mm 3 mps 671 mmHg 67%
    03:00 +13°C° 0.2 mm 3 mps 671 mmHg 69%
    04:00 +14°C° 0.2 mm 2 mps 671 mmHg 72%
    05:00 +14°C° 0 mm 2 mps 671 mmHg 72%
    06:00 +14°C° 0 mm 2 mps 672 mmHg 73%
    07:00 +14°C° 0 mm 2 mps 673 mmHg 73%
    08:00 +15°C° 0 mm 2 mps 673 mmHg 67%
    09:00 +16°C° 0 mm 2 mps 674 mmHg 61%
    10:00 +18°C° 0 mm 1 mps 674 mmHg 56%
    11:00 +18°C° 0 mm 2 mps 674 mmHg 49%
    12:00 +19°C° 0 mm 2 mps 674 mmHg 43%
    13:00 +20°C° 0 mm 2 mps 674 mmHg 36%
    14:00 +20°C° 0 mm 2 mps 674 mmHg 34%
    15:00 +21°C° 0 mm 2 mps 673 mmHg 33%
    16:00 +21°C° 0 mm 2 mps 673 mmHg 31%
    17:00 +21°C° 0 mm 2 mps 673 mmHg 34%
    18:00 +20°C° 0 mm 2 mps 674 mmHg 37%
    19:00 +19°C° 0 mm 2 mps 674 mmHg 39%
    20:00 +19°C° 0.2 mm 2 mps 674 mmHg 42%
    21:00 +18°C° 0.2 mm 3 mps 674 mmHg 44%
    22:00 +18°C° 0.2 mm 3 mps 674 mmHg 47%
    23:00 +17°C° 0.5 mm 3 mps 674 mmHg 50%

    25 February, Sunday

    Time Temperature Precipitation Wind Pressure Humidity
    00:00 +17°C° 0.5 mm 3 mps 674 mmHg 54%
    01:00 +17°C° 0.5 mm 3 mps 674 mmHg 57%
    02:00 +16°C° 1.1 mm 3 mps 674 mmHg 61%
    03:00 +15°C° 1.1 mm 4 mps 674 mmHg 66%
    04:00 +14°C° 1.1 mm 4 mps 674 mmHg 71%
    05:00 +14°C° 2.1 mm 4 mps 674 mmHg 74%
    06:00 +13°C° 2.1 mm 4 mps 675 mmHg 77%
    07:00 +13°C° 2.1 mm 4 mps 675 mmHg 81%
    08:00 +13°C° 0.5 mm 4 mps 675 mmHg 77%
    09:00 +14°C° 0.5 mm 4 mps 676 mmHg 74%
    10:00 +14°C° 0.5 mm 5 mps 676 mmHg 71%
    11:00 +15°C° 0.2 mm 5 mps 676 mmHg 68%
    12:00 +16°C° 0.2 mm 5 mps 675 mmHg 65%
    13:00 +16°C° 0.2 mm 5 mps 675 mmHg 62%
    14:00 +17°C° 0 mm 5 mps 675 mmHg 60%
    15:00 +17°C° 0 mm 6 mps 675 mmHg 59%
    16:00 +17°C° 0 mm 6 mps 674 mmHg 57%
    17:00 +17°C° 0.3 mm 6 mps 675 mmHg 58%
    18:00 +16°C° 0.3 mm 6 mps 675 mmHg 60%
    19:00 +16°C° 0.3 mm 6 mps 675 mmHg 61%
    20:00 +15°C° 1.7 mm 6 mps 675 mmHg 65%
    21:00 +15°C° 1.7 mm 7 mps 675 mmHg 68%
    22:00 +14°C° 1.7 mm 7 mps 675 mmHg 71%
    23:00 +14°C° 0.3 mm 7 mps 675 mmHg 70%

    26 February, Monday

    Time Temperature Precipitation Wind Pressure Humidity
    00:00 +14°C° 0.3 mm 7 mps 675 mmHg 69%
    01:00 +14°C° 0.3 mm 6 mps 675 mmHg 68%
    02:00 +13°C° 0.7 mm 6 mps 674 mmHg 70%
    03:00 +13°C° 0.7 mm 5 mps 674 mmHg 71%
    04:00 +13°C° 0.7 mm 5 mps 674 mmHg 73%
    05:00 +13°C° 0.6 mm 5 mps 674 mmHg 74%
    06:00 +13°C° 0.6 mm 5 mps 675 mmHg 76%
    07:00 +13°C° 0.6 mm 5 mps 675 mmHg 78%
    08:00 +13°C° 0.4 mm 5 mps 675 mmHg 75%
    09:00 +14°C° 0.4 mm 5 mps 676 mmHg 73%
    10:00 +14°C° 0.4 mm 4 mps 676 mmHg 70%
    11:00 +15°C° 0.8 mm 4 mps 676 mmHg 68%
    12:00 +15°C° 0.8 mm 4 mps 675 mmHg 65%
    13:00 +17°C° 0.8 mm 4 mps 675 mmHg 62%
    14:00 +17°C° 0.4 mm 4 mps 675 mmHg 64%
    15:00 +15°C° 0.4 mm 4 mps 675 mmHg 66%
    16:00 +15°C° 0.4 mm 4 mps 675 mmHg 67%
    17:00 +15°C° 1 mm 4 mps 675 mmHg 71%
    18:00 +14°C° 1 mm 4 mps 675 mmHg 75%
    19:00 +13°C° 1 mm 3 mps 675 mmHg 79%
    20:00 +13°C° 0.4 mm 3 mps 675 mmHg 80%
    21:00 +13°C° 0.4 mm 3 mps 675 mmHg 82%
    22:00 +13°C° 0.4 mm 3 mps 675 mmHg 83%
    23:00 +12°C° 0 mm 3 mps 675 mmHg 84%
    Show more